Regional Weather Roundup
Issued by NWS Little Rock, AR

Home | Current Version | Previous Version | Text Only | Print | Product List | Glossary Off
Versions: 1 2 3 4 5 6 7 8 9 10 11 12 13 14 15 16 17 18 19 20 21 22 23 24 25 26 27 28 29 30 31 32 33 34 35 36 37 38 39 40 41 42 43 44 45 46 47 48 49 50

000
ASUS44 KLZK 230405
RWRLZK

WEATHER ROUNDUP FOR ARKANSAS
NATIONAL WEATHER SERVICE LITTLE ROCK AR
1000 PM CST SAT NOV 22 2014

NOTE: "FAIR" INDICATES FEW OR NO CLOUDS BELOW 12,000 FEET WITH NO
SIGNIFICANT WEATHER AND/OR OBSTRUCTIONS TO VISIBILITY.

ARZ001-003-010-029-230500-
NORTHWEST ARKANSAS

CITY           SKY/WX    TMP DP  RH WIND       PRES   REMARKS
FAYETTEVILLE   CLOUDY    57  52  83 SE9       29.82F
FORT SMITH     CLOUDY    53  51  93 E7        29.83F FOG
HARRISON       CLOUDY    52  51  97 S12       29.87F
BENTONVILLE    MOCLDY    54  50  87 S10       29.82F
ROGERS         CLOUDY    53  51  93 SE12      29.81F
SILOAM SPGS    CLOUDY    55  48  76 SE12      29.81F
HIGHFILL       CLOUDY    54  32  43 S13       29.80F
$$

ARZ004-005-016-230500-
NORTH CENTRAL ARKANSAS

CITY           SKY/WX    TMP DP  RH WIND       PRES   REMARKS
BATESVILLE     PTCLDY    52  46  82 SE3       29.94S
FLIPPIN        CLOUDY    52  46  82 SE5       29.89F
MTN HOME       CLOUDY    51  50  96 S8        29.89F
$$

ARZ040-041-230500-
WEST CENTRAL ARKANSAS

CITY           SKY/WX    TMP DP  RH WIND       PRES   REMARKS
MENA           CLOUDY    57  55  94 CALM      29.85F
MOUNT IDA      CLOUDY    60  55  83 SE8       29.85F
$$

ARZ009-017-025-026-028-230500-
NORTHEAST ARKANSAS

CITY           SKY/WX    TMP DP  RH WIND       PRES   REMARKS
CORNING        FAIR      50  43  76 SE9       29.95F
JONESBORO      PTCLDY    49  43  80 E3        29.96F
NEWPORT        PTCLDY    50  45  83 SE12      29.96F
WALNUT RIDGE   PTCLDY    50  39  66 SE7       29.93F
BLYTHEVILLE    CLEAR     62  43  49 S8        29.98F
$$

ARZ022-023-033-042-044-230500-
CENTRAL ARKANSAS

CITY           SKY/WX    TMP DP  RH WIND       PRES   REMARKS
LITTLE ROCK    MOCLDY    60  52  74 SE9       29.92F
N LITTLE ROCK  MOCLDY    58  55  89 SE8       29.92F
JACKSONVILLE   MOCLDY    58  52  81 E5        29.92F
SEARCY         PTCLDY    50  48  93 CALM      29.95F
HOT SPRINGS    CLOUDY    60  55  83 E8        29.89F
RUSSELLVILLE   CLOUDY    53  51  93 E5        29.88F FOG
CLINTON        FOG       48  48 100 CALM      29.94F VSB 3/4
$$

ARZ036-230500-
EAST ARKANSAS

CITY           SKY/WX    TMP DP  RH WIND       PRES   REMARKS
WEST MEMPHIS   MOCLDY    57  48  72 S14       29.96F
$$

ARZ050-053-066-070-073-230500-
SOUTHWEST ARKANSAS

CITY           SKY/WX    TMP DP  RH WIND       PRES   REMARKS
ARKADELPHIA    CLOUDY    61  58  90 SE3       29.90F
CAMDEN         CLOUDY    63  54  72 NE3       29.90F
TEXARKANA      RAIN      60  59  96 SE6       29.85F FOG
EL DORADO      CLOUDY    62  56  80 E6        29.88F
DE QUEEN       LGT RAIN  60  58  92 E7        29.83F FOG
$$

ARZ056-057-069-230500-
SOUTHEAST ARKANSAS

CITY           SKY/WX    TMP DP  RH WIND       PRES   REMARKS
PINE BLUFF     MOCLDY    56  52  86 E8        29.93F
STUTTGART      CLOUDY    55  48  76 SE7       29.95F
MONTICELLO     MOCLDY    59  52  77 E6        29.92F

$$





USA.gov is the U.S. government's official web portal to all federal, state and local government web resources and services.